Weather History for Bundaberg Aerodrome, Queensland

Change the Weather History Date:

Friday, February 28, 2014

  Actual Average Record
Temperature  
Mean Temperature 76 °F -  
Max Temperature 86 °F - - ()
Min Temperature 67 °F - - ()
Cooling Degree Days 12    
Growing Degree Days 26 (Base 50)    
Moisture  
Dew Point 63 °F    
Average Humidity 64    
Maximum Humidity 88    
Minimum Humidity 29    
Precipitation  
Precipitation 0.00 in - - ()
Sea Level Pressure  
Sea Level Pressure 29.96 in    
Wind  
Wind Speed 10 mph ()    
Max Wind Speed 22 mph    
Max Gust Speed 30 mph    
Visibility 6.2 miles    
Events Rain    
T = Trace of Precipitation, MM = Missing Value Source: Averaged Metar Reports

Daily Weather History Graph

Daily Weather History Graph

Search for Another Location

Airport:

Trip Planner

Search our weather history database for the weather conditions in past years. The results will help you decide how hot, cold, wet, or windy it might be!

Date:

Astronomy

Feb. 28, 2014 Rise Set
Actual Time 5:44 AM AEST 6:21 PM AEST
Civil Twilight 5:21 AM AEST 6:45 PM AEST
Nautical Twilight 4:54 AM AEST 7:12 PM AEST
Astronomical Twilight 4:26 AM AEST 7:39 PM AEST
Moon 4:13 AM AEST (2/28) 5:18 PM AEST (2/28)
Length of Visible Light 13h 23m
Length of Day
12h 37m
Waning Crescent, 2% of the Moon is Illuminated
Feb 28
Waning Crescent
Mar 1
New
Mar 8
First Quarter
Mar 17
Full
Mar 24
Last Quarter

Hourly Weather History & Observations

Time (AEST) Temp. Heat Index Dew Point Humidity Pressure Visibility Wind Dir Wind Speed Gust Speed Precip Events Conditions
12:00 AM 69 °F - 62 °F 74% 29.98 in - South 6.9 mph - -  
12:00 AM 69.8 °F - 62.6 °F 78% 29.98 in 6.2 mi South 6.9 mph - N/A   Scattered Clouds
1:00 AM 68.0 °F - 62.6 °F 83% 29.95 in 6.2 mi South 6.9 mph - N/A   Unknown
2:00 AM 68.0 °F - 62.6 °F 83% 29.95 in 6.2 mi South 5.8 mph - N/A   Unknown
3:00 AM 68 °F - 63 °F 80% 29.94 in - South 8.1 mph - -  
3:00 AM 68.0 °F - 62.6 °F 83% 29.92 in 6.2 mi South 8.1 mph - N/A   Scattered Clouds
4:00 AM 68.0 °F - 64.4 °F 88% 29.95 in 6.2 mi South 6.9 mph - N/A   Mostly Cloudy
5:00 AM 68.0 °F - 64.4 °F 88% 29.95 in 6.2 mi South 6.9 mph - N/A   Overcast
6:00 AM 67 °F - 63 °F 83% 29.96 in - South 5.8 mph - -  
6:00 AM 68.0 °F - 62.6 °F 83% 29.95 in 6.2 mi South 5.8 mph - N/A   Unknown
7:00 AM 69.8 °F - 64.4 °F 83% 29.98 in 6.2 mi South 9.2 mph - N/A   Mostly Cloudy
8:00 AM 71.6 °F - 66.2 °F 83% 30.01 in 6.2 mi SSE 11.5 mph - N/A Rain Light Rain
9:00 AM 79 °F - 68 °F 62% 30.01 in - SSE 11.5 mph - -  
9:00 AM 78.8 °F - 68.0 °F 69% 30.01 in 6.2 mi SSE 11.5 mph - N/A   Mostly Cloudy
10:00 AM 86.0 °F 87.3 °F 64.4 °F 48% 30.01 in 6.2 mi East 17.3 mph - N/A   Mostly Cloudy
11:00 AM 84.2 °F 83.5 °F 57.2 °F 40% 29.98 in 6.2 mi ESE 18.4 mph - N/A   Unknown
12:00 PM 86 °F - 61 °F 33% 29.96 in - East 18.4 mph - -  
12:00 PM 86.0 °F 86.1 °F 60.8 °F 43% 29.95 in 6.2 mi East 18.4 mph - N/A   Unknown
1:00 PM 86.0 °F 86.6 °F 62.6 °F 45% 29.95 in 6.2 mi ESE 21.9 mph - N/A   Scattered Clouds
2:00 PM 84.2 °F 84.4 °F 60.8 °F 45% 29.92 in 6.2 mi ESE 20.7 mph - N/A   Unknown
3:00 PM 86 °F - 59 °F 29% 29.91 in - ESE 20.7 mph - -  
3:00 PM 86.0 °F 85.4 °F 59.0 °F 40% 29.92 in 6.2 mi ESE 20.7 mph - N/A   Unknown
3:18 PM 86.0 °F 86.1 °F 60.8 °F 43% 29.92 in 6.2 mi East 18.4 mph 29.9 mph N/A   Unknown
4:00 PM 84.2 °F 83.5 °F 57.2 °F 40% 29.92 in 6.2 mi East 21.9 mph - N/A   Unknown
5:00 PM 82.4 °F 82.9 °F 60.8 °F 48% 29.92 in 6.2 mi ESE 18.4 mph - N/A   Unknown
6:00 PM 79 °F - 62 °F 46% 29.95 in - ESE 17.3 mph - -  
6:00 PM 78.8 °F - 62.6 °F 57% 29.95 in 6.2 mi ESE 17.3 mph - N/A   Unknown
7:00 PM 77.0 °F - 64.4 °F 65% 29.98 in 6.2 mi ESE 15.0 mph - N/A   Scattered Clouds
8:00 PM 75.2 °F - 64.4 °F 69% 29.98 in 6.2 mi SE 9.2 mph - N/A   Mostly Cloudy
9:00 PM 74 °F - 64 °F 62% 30.00 in - SSE 9.2 mph - -  
9:00 PM 73.4 °F - 64.4 °F 73% 30.01 in 6.2 mi SSE 9.2 mph - N/A   Unknown
10:00 PM 71.6 °F - 64.4 °F 78% 30.01 in 6.2 mi South 8.1 mph - N/A   Scattered Clouds
11:00 PM 71.6 °F - 64.4 °F 78% 30.01 in 6.2 mi South 6.9 mph - N/A   Scattered Clouds